Weather History for Milton, FL

Change the Weather History Date:

Wednesday, November 2, 2011

  Actual Average (KNSE) Record (KNSE)
Temperature  
Mean Temperature 60 °F -  
Max Temperature 75 °F 72 °F 84 °F (2004)
Min Temperature 46 °F 54 °F 43 °F (2011)
Degree Days  
Heating Degree Days 4    
Growing Degree Days 10 (Base 50)    
Moisture  
Dew Point 45 °F    
Average Humidity 62    
Maximum Humidity 83    
Minimum Humidity 40    
Precipitation  
Precipitation 0.00 in - - ()
Sea Level Pressure  
Sea Level Pressure 30.19 in    
Wind  
Wind Speed 8 mph (ESE)    
Max Wind Speed 15 mph    
Max Gust Speed -    
Visibility 10 miles    
Events      
Averages and records for this station are not official NWS values.
T = Trace of Precipitation, MM = Missing Value Source: NWS Daily Summary

Daily Weather History Graph

Daily Weather History Graph

Search for Another Location

Airport:

Trip Planner

Search our weather history database for the weather conditions in past years. The results will help you decide how hot, cold, wet, or windy it might be!

Date:

Astronomy

Nov. 02, 2011 Rise Set
Actual Time 7:03 AM CDT 5:59 PM CDT
Civil Twilight 6:38 AM CDT 6:24 PM CDT
Nautical Twilight 6:10 AM CDT 6:52 PM CDT
Astronomical Twilight 5:41 AM CDT 7:21 PM CDT
Moon 1:23 PM CDT (11/2) No Moon Set
Length of Visible Light 11h 45m
Length of Day
10h 55m
Waxing Crescent, 50% of the Moon is Illuminated
Nov 2
Waxing Crescent
Nov 10
Full
Nov 18
Last Quarter
Nov 25
New
Dec 2
First Quarter

Hourly Weather History & Observations

Time (CDT) Temp. Windchill Dew Point Humidity Pressure Visibility Wind Dir Wind Speed Gust Speed Precip Events Conditions
12:56 AM 51.1 °F - 37.0 °F 59% 30.20 in 10.0 mi East 6.9 mph - N/A   Clear
1:56 AM 51.1 °F - 37.0 °F 59% 30.19 in 10.0 mi East 8.1 mph - N/A   Clear
2:56 AM 50.0 °F - 37.0 °F 61% 30.18 in 10.0 mi East 9.2 mph - N/A   Clear
3:56 AM 48.0 °F - 37.0 °F 66% 30.19 in 10.0 mi ENE 8.1 mph - N/A   Clear
4:56 AM 48.9 °F - 37.9 °F 66% 30.20 in 10.0 mi East 9.2 mph - N/A   Clear
5:56 AM 46.0 °F 41.9 °F 37.9 °F 73% 30.22 in 10.0 mi ENE 8.1 mph - N/A   Clear
6:56 AM 46.0 °F 41.9 °F 39.9 °F 79% 30.23 in 10.0 mi ENE 8.1 mph - N/A   Clear
7:56 AM 50.0 °F - 39.9 °F 68% 30.25 in 10.0 mi ENE 9.2 mph - N/A   Clear
8:56 AM 55.9 °F - 41.0 °F 57% 30.26 in 10.0 mi East 11.5 mph - N/A   Clear
9:56 AM 63.0 °F - 43.0 °F 48% 30.27 in 10.0 mi East 15.0 mph - N/A   Clear
10:56 AM 66.0 °F - 46.0 °F 48% 30.26 in 10.0 mi East 9.2 mph - N/A   Clear
11:56 AM 68.0 °F - 46.9 °F 47% 30.24 in 10.0 mi Calm Calm - N/A   Clear
12:56 PM 70.0 °F - 48.0 °F 46% 30.21 in 10.0 mi SSE 5.8 mph - N/A   Clear
1:56 PM 72.0 °F - 48.0 °F 43% 30.17 in 10.0 mi SE 8.1 mph - N/A   Clear
2:56 PM 75.0 °F - 48.9 °F 40% 30.15 in 10.0 mi SE 9.2 mph - N/A   Clear
3:56 PM 73.0 °F - 52.0 °F 48% 30.14 in 10.0 mi SSW 4.6 mph - N/A   Partly Cloudy
5:56 PM 66.0 °F - 53.1 °F 63% 30.15 in 10.0 mi SSE 4.6 mph - N/A   Clear
6:56 PM 63.0 °F - 52.0 °F 67% 30.16 in 10.0 mi SSE 5.8 mph - N/A   Clear
7:56 PM 62.1 °F - 52.0 °F 70% 30.16 in 10.0 mi Calm Calm - N/A   Clear
8:56 PM 60.1 °F - 52.0 °F 75% 30.15 in 10.0 mi ESE 4.6 mph - N/A   Clear
9:56 PM 60.1 °F - 52.0 °F 75% 30.15 in 10.0 mi SE 4.6 mph - N/A   Clear
10:56 PM 57.0 °F - 52.0 °F 83% 30.15 in 10.0 mi SE 6.9 mph - N/A   Clear
11:56 PM 59.0 °F - 54.0 °F 83% 30.14 in 10.0 mi ESE 8.1 mph - N/A   Clear